Dewpoint
38 37 38 39 40 42 43 45 46 48 49 51 53 60 63 63 62 63 62 61 61 61
36 38 38 37 40 39 40 41 44 47 48 50 51 54 63 63 62 62 62 62 61 61
36 37 38 38 38 37 40 42 42 45 47 48 50 53 58 63 63 62 62 62 61 61
36 37 37 38 38 38 40 40 42 44 46 46 48 51 53 61 62 61 62 61 61 60
35 36 36 38 38 39 40 41 41 43 45 46 47 50 51 50 61 61 61 61 60 60
34 35 35 37 38 38 40 40 42 42 44 45 46 43 44 45 49 61 61 61 60 60
34 34 36 37 39 38 39 40 41 43 44 43 40 38 39 41 44 48 59 61 60 59
33 34 35 38 38 38 39 40 40 41 42 41 38 37 38 38 41 43 49 55 61 60
31 32 34 37 38 37 38 39 39 40 40 40 37 37 37 37 39 42 45 51 58 60
30 31 33 36 38 37 38 38 39 39 39 40 38 36 37 36 42 45 47 50 53 55
31 30 32 36 38 38 38 38 38 39 39 39 37 36 36 36 41 42 43 45 47 49
31 31 31 35 37 38 37 37 36 37 37 37 37 35 35 36 38 38 39 41 44 46
29 31 31 36 36 39 35 35 36 34 36 36 36 34 34 35 36 36 38 41 41 38
28 29 31 34 35 36 33 32 33 33 35 33 35 32 32 34 34 34 37 38 38 39
Lifted_Index
14 14 14 13 12 10 7 5 3 1 -0 -1 -1 -2 -2 -2 -1 -1 0 1 1 1
13 14 14 14 13 11 9 7 5 2 1 -0 -1 -1 -2 -1 -1 -1 -0 0 1 1
13 13 14 14 14 12 10 8 6 4 2 0 -1 -1 -1 -1 -1 -1 -0 -0 0 1
13 13 14 14 14 13 12 9 7 5 3 1 0 -1 -1 -1 -1 -1 -1 -0 0 1
12 13 13 14 14 14 12 11 8 6 4 3 1 0 -0 -1 -1 -1 -0 -0 0 1
11 12 13 14 14 14 13 12 10 8 6 4 3 1 0 -0 -0 -0 -1 -0 0 0
10 11 12 13 13 14 14 13 11 9 8 6 4 3 1 0 -0 -0 -1 -1 -0 0
8 9 11 12 13 13 13 13 12 11 10 8 7 5 3 1 0 -0 -0 -0 -0 -0
8 9 10 11 12 12 12 13 13 12 11 10 9 7 5 3 1 0 -0 -0 -0 -0
8 8 9 10 11 12 12 12 13 12 12 11 10 9 7 5 3 1 0 0 0 0
8 8 8 9 10 11 12 12 12 13 13 12 12 11 9 7 5 3 2 1 1 1
8 8 8 8 9 10 11 12 12 13 13 13 13 13 11 9 7 5 3 3 2 2
9 8 8 8 8 9 10 11 12 13 13 13 14 14 13 11 9 7 5 4 4 3
9 9 8 8 8 9 10 11 12 13 13 14 14 14 14 13 11 8 7 5 4 4